DW8572 Weather Reports


time (UTC)temp
C
wind
direction
speed
KPH
gust
KPH
rain 1hr
cm
rain 24hr
cm
rain mn
cm
humidity
%
barometer
mb
20260903010021 28 216 0.0 0.0 0.00 0.00 0.00 81 1012.0
20260903004521 28 216 0.0 0.0 0.00 0.00 0.00 80 1011.9
20260903003020 28 216 0.0 0.0 0.00 0.00 0.00 79 1011.8
20260903001525 29 216 0.0 0.0 0.00 0.00 0.00 78 1011.8
20260903000023 30 216 0.0 0.0 0.00 0.00 0.00 76 1011.8
20260902234518 30 216 0.0 0.0 0.00 0.00 0.00 74 1011.9
20260902233018 31 216 0.0 0.0 0.00 0.00 0.00 72 1012.0
20260902231523 31 216 0.0 0.0 0.00 0.00 0.00 70 1012.0
20260902230016 32 216 0.0 0.0 0.00 0.00 0.00 69 1011.9
20260902224516 32 216 0.0 0.0 0.00 0.00 0.00 68 1011.9
20260902223014 32 216 0.0 0.0 0.00 0.00 0.00 66 1012.0
20260902221518 32 215 0.0 0.0 0.00 0.00 0.00 65 1012.0
20260902220015 33 215 0.0 0.0 0.00 0.00 0.00 65 1012.0
20260902214513 33 214 0.0 0.0 0.00 0.00 0.00 64 1011.9
20260902213012 33 211 0.0 0.0 0.00 0.00 0.00 67 1012.0
20260902211512 33 210 0.0 0.0 0.00 0.00 0.00 66 1012.0
20260902210010 33 204 0.0 0.0 0.00 0.00 0.00 66 1012.1
20260902204510 33 211 0.0 0.0 0.00 0.00 0.00 66 1012.3
20260902203007 33 211 0.0 0.0 0.00 0.00 0.00 65 1012.4
20260902201509 32 205 0.0 0.0 0.00 0.00 0.00 67 1012.5
20260902200007 32 197 0.0 0.0 0.00 0.00 0.00 67 1012.5
20260902194504 32 201 0.0 0.0 0.00 0.00 0.00 66 1012.7
20260902193002 33 209 0.0 0.0 0.00 0.00 0.00 67 1012.9
20260902191603 32 211 0.0 0.0 0.00 0.00 0.00 65 1013.0
20260902190125 32 207 0.0 0.0 0.00 0.00 0.00 67 1013.1
20260902184607 32 199 0.0 0.0 0.00 0.00 0.00 67 1013.1
20260902183056 32 209 0.0 0.0 0.00 0.00 0.00 66 1013.3
20260902181608 32 200 0.0 0.0 0.00 0.00 0.00 68 1013.4
20260902180052 32 213 0.0 0.0 0.00 0.00 0.00 68 1013.6
20260902174552 32 199 0.0 0.0 0.00 0.00 0.00 70 1013.8
20260902173051 32 207 0.0 0.0 0.00 0.00 0.00 70 1013.9
20260902171610 32 227 0.0 0.0 0.00 0.00 0.00 71 1014.1
20260902170051 32 227 0.0 0.0 0.00 0.00 0.00 70 1014.1
20260902164548 32 227 0.0 0.0 0.00 0.00 0.00 66 1014.2
20260902163047 31 227 0.0 0.0 0.00 0.00 0.00 67 1014.5
20260902161548 31 227 0.0 0.0 0.00 0.00 0.00 69 1014.5
20260902160044 31 227 0.0 0.0 0.00 0.00 0.00 71 1014.6
20260902154539 30 227 0.0 0.0 0.00 0.00 0.00 72 1014.7
20260902153036 30 227 0.0 0.0 0.00 0.00 0.00 71 1014.6
20260902151535 30 227 0.0 0.0 0.00 0.00 0.00 73 1014.6
20260902150031 29 227 0.0 0.0 0.00 0.00 0.00 74 1014.6
20260902144531 28 227 0.0 0.0 0.00 0.03 0.00 75 1014.6
20260902143026 28 227 0.0 0.0 0.00 0.03 0.00 76 1014.4
20260902141530 27 227 0.0 0.0 0.00 0.03 0.00 80 1014.4
20260902140017 27 227 0.0 0.0 0.00 0.03 0.00 81 1014.4
20260902134521 26 227 0.0 0.0 0.00 0.18 0.00 83 1014.6
20260902133011 25 227 0.0 0.0 0.00 0.18 0.00 87 1014.6
20260902131510 25 227 0.0 0.0 0.00 0.18 0.00 87 1014.8
20260902130009 24 227 0.0 0.0 0.00 0.18 0.00 89 1014.7
20260902124511 23 227 0.0 0.0 0.00 0.20 0.00 90 1014.6
20260902123008 23 227 0.0 0.0 0.00 0.20 0.00 92 1014.7
20260902121509 22 227 0.0 0.0 0.00 0.20 0.00 92 1014.7
20260902120007 22 227 0.0 0.0 0.00 0.20 0.00 92 1014.6
20260902114506 22 227 0.0 0.0 0.00 0.20 0.00 92 1014.6
20260902113013 22 227 0.0 0.0 0.00 0.20 0.00 92 1014.6
20260902111504 22 227 0.0 0.0 0.00 0.20 0.00 92 1014.5
20260902110004 22 227 0.0 0.0 0.00 0.20 0.00 92 1014.3
20260902104502 22 227 0.0 0.0 0.00 0.20 0.00 92 1014.2
20260902103001 22 227 0.0 0.0 0.00 0.20 0.00 92 1014.1
20260902101600 22 227 0.0 0.0 0.00 0.20 0.00 92 1014.0
20260902100058 22 227 0.0 0.0 0.00 0.20 0.00 92 1013.9
20260902094558 22 227 0.0 0.0 0.00 0.20 0.00 92 1013.9
20260902093055 22 227 0.0 0.0 0.00 0.20 0.00 92 1013.8
20260902091555 22 227 0.0 0.0 0.00 0.20 0.00 92 1013.7
20260902090052 22 227 0.0 0.0 0.00 0.20 0.00 91 1013.8
20260902084551 22 227 0.0 0.0 0.00 0.20 0.00 91 1013.7
20260902083050 22 227 0.0 0.0 0.00 0.20 0.00 91 1013.7
20260902081554 23 227 0.0 0.0 0.00 0.20 0.00 91 1013.8
20260902080046 23 227 0.0 0.0 0.00 0.20 0.00 91 1013.6
20260902074605 23 227 0.0 0.0 0.00 0.20 0.00 91 1013.7
20260902073043 23 227 0.0 0.0 0.00 0.20 0.00 91 1013.5
20260902071543 23 227 0.0 0.0 0.00 0.20 0.00 91 1013.5
20260902070041 23 227 0.0 0.0 0.00 0.20 0.00 91 1013.5
20260902064540 24 227 0.0 0.0 0.00 0.20 0.00 90 1013.4
20260902063059 24 227 0.0 0.0 0.00 0.20 0.00 91 1013.5
20260902061537 24 227 0.0 0.0 0.00 0.20 0.00 90 1013.6
20260902060049 24 227 0.0 0.0 0.00 0.20 0.00 90 1013.6
20260902054535 25 227 0.0 0.0 0.00 0.20 0.00 90 1013.6
20260902053034 25 227 0.0 0.0 0.00 0.20 0.00 90 1013.7
20260902051544 25 227 0.0 0.0 0.00 0.20 0.00 90 1013.7
20260902050033 25 227 0.0 0.0 0.00 0.20 0.00 90 1013.7
20260902044531 25 227 0.0 0.0 0.00 0.20 0.00 89 1013.6
20260902043029 25 227 0.0 0.0 0.00 0.20 0.00 89 1013.6
20260902041541 25 227 0.0 0.0 0.00 0.20 0.00 88 1013.5
20260902040026 26 227 0.0 0.0 0.00 0.20 0.00 87 1013.4
20260902034523 26 227 0.0 0.0 0.00 0.20 0.20 88 1013.4
20260902033023 26 227 0.0 0.0 0.00 0.20 0.20 88 1013.4
20260902031522 26 227 0.0 0.0 0.00 0.20 0.20 88 1013.4
20260902030022 26 227 0.0 0.0 0.00 0.20 0.20 89 1013.4
20260902024521 26 227 0.0 0.0 0.00 0.20 0.20 88 1013.4
20260902023021 26 227 0.0 0.0 0.00 0.20 0.20 87 1013.5
20260902021524 26 227 0.0 0.0 0.00 0.20 0.20 87 1013.5
20260902020020 26 227 0.0 0.0 0.00 0.20 0.20 86 1013.4
20260902014526 27 227 0.0 0.0 0.00 0.20 0.20 86 1013.5
20260902013020 27 227 0.0 0.0 0.00 0.20 0.20 85 1013.5
20260902011521 27 227 0.0 0.0 0.00 0.20 0.20 84 1013.4